COSMOS 1275 DEB, 39936

Orbit data source: Space-Track

COSMOS 1275 DEB, 39936 is space debris in LEO originally from a launch on Thu, 04 Jun 1981 UTC launched from the Plesetsk Missile And Space Complex (PKMTR). Debris objects in space refer to the collection of defunct objects orbiting the Earth. Examples of debris include non-operational satellites, rocket bodies, and fragments generated from explosions, collisions, or faulty payload assembly.

Loading next visibility...
Identifier
39936, 1981-053MW
Orbit
LEO
Country
Flag of CISCIS
Related business
Manufacturer
Unknown
Mission
Spacecraft
Bus & Motor
Unknown
Mass
Unknown
Launch date (UTC)
1981-06-04 (45 years ago)
Launch vehicle
Unknown
Launch site
Plesetsk Missile And Space Complex (PKMTR)
Object type
Payload
Rocket body
Debris
Shape & HBR
Unknown shape, 0.1 m
Radar Cross Section
Small (<0.1 m²)

Expand to show TLE details & history
Last TLE update: 3 weeks ago

TLE from 3 weeks ago
0 COSMOS 1275 DEB
1 39936U 81053MW  26139.46356597  .00000877  00000-0  67830-3 0  9992
2 39936  83.1496 220.7739 0055893 267.3767  92.1000 13.91052931594667
Epoch: 2026-05-19T11:07Z
TLE epoch observation values (Epoch: 2026-05-19T11:07:32.099Z)
Latitude
-0.00001°
Longitude
176.75304°
Altitude
929.594 km
Speed
7.386 km/s
True Right ascension
14h 43m 05s
True Declination
0° 00' 00"
Sunlit
Object was in full shadow at epoch
Visualization orbit readout
Latitude
Unknown
Longitude
Unknown
Altitude
Unknown
Speed
Unknown
Apparent Right ascension
Unknown
Apparent Declination
Unknown
Sunlit
N/A
Visualization observer readout
Local Sidereal Time
18:19:56
Azimuth
Unknown
Elevation
Unknown
Doppler factor
Unknown
Orbital elements
Apogee altitude
962.865 km
Perigee altitude
881.259 km
Semi-major axis
7,300.199 km
Eccentricity
0.00559
Inclination
83.1496°
RAAN
220.7739°
Arg. of periapsis
267.3767°
True anomaly
92.73988°
Mean anomaly
92.1°
Eccentric anomaly
92.41996°
Mean motion
3.47969 °/min
Orbital period
103.46 mins
BSTAR
0.0006783
Loading maneuver chart data...
Computing Atmospheric mass density...

Documentation

Showing up to 5 results
|